TimeEST,TemperatureF,Dew PointF,Humidity,Sea Level PressureIn,VisibilityMPH,Wind Direction,Wind SpeedMPH,Gust SpeedMPH,PrecipitationIn,Events,Conditions,WindDirDegrees,DateUTC
12:58 AM,29.1,26.1,88,30.46,10.0,SSW,3.5,-,N/A,,Clear,200,2013-11-14 05:58:00
1:58 AM,28.6,25.5,88,30.45,10.0,SSW,3.5,-,N/A,,Clear,210,2013-11-14 06:58:00
2:58 AM,28.2,25.9,91,30.44,10.0,SSW,4.6,-,N/A,,Clear,210,2013-11-14 07:58:00
3:58 AM,28.2,24.6,86,30.43,10.0,SSW,5.8,-,N/A,,Clear,200,2013-11-14 08:58:00
4:58 AM,29.8,24.3,80,30.43,10.0,SSW,5.8,-,N/A,,Clear,210,2013-11-14 09:58:00
5:58 AM,30.4,24.1,77,30.43,10.0,SSW,5.8,-,N/A,,Clear,210,2013-11-14 10:58:00
6:58 AM,30.4,23.9,77,30.45,10.0,SW,5.8,-,N/A,,Clear,230,2013-11-14 11:58:00
7:58 AM,36.1,26.2,67,30.45,10.0,SW,6.9,-,N/A,,Clear,220,2013-11-14 12:58:00
8:58 AM,41.9,22.8,47,30.46,10.0,SSW,8.1,-,N/A,,Clear,210,2013-11-14 13:58:00
9:58 AM,45.3,21.4,39,30.45,10.0,SW,12.7,-,N/A,,Clear,230,2013-11-14 14:58:00
10:58 AM,49.3,21.4,33,30.43,10.0,SW,16.1,-,N/A,,Clear,230,2013-11-14 15:58:00
11:58 AM,52.5,22.1,31,30.40,10.0,SW,15.0,-,N/A,,Clear,220,2013-11-14 16:58:00
12:58 PM,55.6,20.7,26,30.36,10.0,SW,16.1,-,N/A,,Clear,220,2013-11-14 17:58:00
1:58 PM,57.2,19.6,23,30.34,10.0,SSW,16.1,-,N/A,,Clear,210,2013-11-14 18:58:00
2:58 PM,57.4,20.5,24,30.34,10.0,SW,15.0,-,N/A,,Clear,220,2013-11-14 19:58:00
3:58 PM,56.5,21.0,25,30.34,10.0,SW,10.4,-,N/A,,Clear,220,2013-11-14 20:58:00
4:58 PM,52.7,23.2,32,30.34,10.0,SSW,9.2,-,N/A,,Clear,210,2013-11-14 21:58:00
5:58 PM,50.0,24.6,37,30.34,10.0,SSW,8.1,-,N/A,,Clear,200,2013-11-14 22:58:00
6:58 PM,49.1,24.6,38,30.34,10.0,South,8.1,-,N/A,,Clear,190,2013-11-14 23:58:00
7:58 PM,48.2,25.7,42,30.34,10.0,South,9.2,-,N/A,,Clear,190,2013-11-15 00:58:00
8:58 PM,47.7,25.3,42,30.35,10.0,SSW,8.1,-,N/A,,Clear,210,2013-11-15 01:58:00
9:58 PM,45.9,25.5,45,30.35,10.0,SSW,9.2,-,N/A,,Clear,210,2013-11-15 02:58:00
10:58 PM,44.8,25.0,46,30.35,10.0,SSW,8.1,-,N/A,,Clear,210,2013-11-15 03:58:00
11:58 PM,45.1,24.6,45,30.35,10.0,SSW,8.1,-,N/A,,Clear,210,2013-11-15 04:58:00